• In Portugal
  • List of Countries
  • For 7 days
  • Water Temperature
  • Satellite Maps
  • Weather Map
  • Weather Widgets
  • user-avatar
    Login

    Hourly Weather Olszyniec

    Today, 23 September, Sunday

    Time Temperature Precipitation Wind Pressure Humidity
    00:00 +11°C° 0 mm 3 mps 722 mmHg 67%
    01:00 +10°C° 0 mm 5 mps 722 mmHg 66%
    02:00 +10°C° 0 mm 4 mps 722 mmHg 69%
    03:00 +10°C° 0 mm 4 mps 721 mmHg 73%
    04:00 +9°C° 0 mm 3 mps 721 mmHg 76%
    05:00 +10°C° 0 mm 3 mps 721 mmHg 76%
    06:00 +10°C° 0 mm 3 mps 721 mmHg 76%
    07:00 +10°C° 0 mm 4 mps 721 mmHg 74%
    08:00 +11°C° 0 mm 4 mps 721 mmHg 70%
    09:00 +12°C° 0 mm 4 mps 721 mmHg 66%
    10:00 +13°C° 0 mm 4 mps 721 mmHg 62%
    11:00 +13°C° 0 mm 4 mps 720 mmHg 63%
    12:00 +13°C° 0 mm 4 mps 719 mmHg 65%
    13:00 +13°C° 0 mm 3 mps 719 mmHg 64%
    14:00 +12°C° 0.2 mm 4 mps 717 mmHg 70%
    15:00 +12°C° 0.2 mm 4 mps 716 mmHg 76%
    16:00 +12°C° 0.2 mm 5 mps 715 mmHg 82%
    17:00 +11°C° 0.7 mm 6 mps 713 mmHg 83%
    18:00 +12°C° 0.7 mm 7 mps 712 mmHg 85%
    19:00 +13°C° 0.7 mm 8 mps 711 mmHg 86%
    20:00 +13°C° 2.1 mm 6 mps 711 mmHg 88%
    21:00 +12°C° 2.1 mm 5 mps 711 mmHg 90%
    22:00 +11°C° 2.1 mm 4 mps 711 mmHg 92%
    23:00 +9°C° 0.7 mm 5 mps 712 mmHg 91%

    Tomorrow, 24 September, Monday

    Time Temperature Precipitation Wind Pressure Humidity
    00:00 +8°C° 0.7 mm 7 mps 714 mmHg 89%
    01:00 +6°C° 0.7 mm 8 mps 715 mmHg 87%
    02:00 +5°C° 0.1 mm 7 mps 717 mmHg 87%
    03:00 +5°C° 0.1 mm 7 mps 718 mmHg 86%
    04:00 +5°C° 0.1 mm 7 mps 720 mmHg 86%
    05:00 +5°C° 0 mm 7 mps 720 mmHg 84%
    06:00 +5°C° 0 mm 8 mps 721 mmHg 82%
    07:00 +5°C° 0 mm 8 mps 722 mmHg 80%
    08:00 +5°C° 0 mm 9 mps 723 mmHg 77%
    09:00 +5°C° 0 mm 9 mps 724 mmHg 73%
    10:00 +6°C° 0 mm 9 mps 725 mmHg 69%
    11:00 +7°C° 0.1 mm 9 mps 725 mmHg 64%
    12:00 +7°C° 0.1 mm 9 mps 725 mmHg 60%
    13:00 +8°C° 0.1 mm 10 mps 726 mmHg 55%
    14:00 +8°C° 0.1 mm 9 mps 726 mmHg 54%
    15:00 +8°C° 0.1 mm 9 mps 726 mmHg 53%
    16:00 +8°C° 0.1 mm 9 mps 726 mmHg 52%
    17:00 +8°C° 0 mm 7 mps 726 mmHg 56%
    18:00 +5°C° 0 mm 6 mps 727 mmHg 60%
    19:00 +5°C° 0 mm 5 mps 727 mmHg 64%
    20:00 +5°C° 0 mm 5 mps 728 mmHg 66%
    21:00 +5°C° 0 mm 5 mps 728 mmHg 68%
    22:00 +4°C° 0 mm 4 mps 729 mmHg 70%
    23:00 +4°C° 0 mm 4 mps 729 mmHg 71%

    Day after tomorrow, 25 September, Tuesday

    Time Temperature Precipitation Wind Pressure Humidity
    00:00 +3°C° 0 mm 4 mps 729 mmHg 73%
    01:00 +3°C° 0 mm 4 mps 730 mmHg 75%
    02:00 +3°C° 0 mm 4 mps 730 mmHg 77%
    03:00 +1°C° 0 mm 4 mps 730 mmHg 79%
    04:00 +1°C° 0 mm 4 mps 731 mmHg 81%
    05:00 +1°C° 0 mm 4 mps 731 mmHg 80%
    06:00 +1°C° 0 mm 4 mps 732 mmHg 80%
    07:00 +3°C° 0 mm 4 mps 732 mmHg 79%
    08:00 +4°C° 0 mm 4 mps 733 mmHg 72%
    09:00 +6°C° 0 mm 4 mps 734 mmHg 65%
    10:00 +7°C° 0 mm 5 mps 734 mmHg 58%
    11:00 +8°C° 0 mm 4 mps 734 mmHg 55%
    12:00 +10°C° 0 mm 4 mps 734 mmHg 52%
    13:00 +11°C° 0 mm 4 mps 734 mmHg 48%
    14:00 +10°C° 0 mm 4 mps 734 mmHg 49%
    15:00 +10°C° 0 mm 4 mps 734 mmHg 49%
    16:00 +10°C° 0 mm 4 mps 734 mmHg 49%
    17:00 +9°C° 0 mm 3 mps 734 mmHg 54%
    18:00 +7°C° 0 mm 3 mps 734 mmHg 60%
    19:00 +5°C° 0 mm 2 mps 735 mmHg 66%
    20:00 +5°C° 0 mm 2 mps 735 mmHg 67%
    21:00 +4°C° 0 mm 2 mps 735 mmHg 68%
    22:00 +4°C° 0 mm 2 mps 735 mmHg 69%
    23:00 +5°C° 0 mm 1 mps 735 mmHg 69%

    26 September, Wednesday

    Time Temperature Precipitation Wind Pressure Humidity
    00:00 +4°C° 0 mm 1 mps 735 mmHg 70%
    01:00 +4°C° 0 mm 1 mps 735 mmHg 70%
    02:00 +4°C° 0 mm 1 mps 735 mmHg 71%
    03:00 +4°C° 0 mm 1 mps 735 mmHg 72%
    04:00 +3°C° 0 mm 1 mps 735 mmHg 72%
    05:00 +3°C° 0 mm 2 mps 734 mmHg 72%
    06:00 +3°C° 0 mm 2 mps 734 mmHg 71%
    07:00 +4°C° 0 mm 2 mps 734 mmHg 70%
    08:00 +5°C° 0 mm 3 mps 734 mmHg 62%
    09:00 +8°C° 0 mm 3 mps 734 mmHg 55%
    10:00 +10°C° 0 mm 4 mps 734 mmHg 47%
    11:00 +11°C° 0 mm 4 mps 734 mmHg 45%
    12:00 +12°C° 0 mm 4 mps 733 mmHg 42%
    13:00 +13°C° 0 mm 4 mps 733 mmHg 40%
    14:00 +13°C° 0 mm 4 mps 732 mmHg 42%
    15:00 +13°C° 0 mm 4 mps 732 mmHg 43%
    16:00 +13°C° 0 mm 4 mps 731 mmHg 44%
    17:00 +12°C° 0 mm 4 mps 731 mmHg 48%
    18:00 +10°C° 0 mm 3 mps 731 mmHg 52%
    19:00 +9°C° 0 mm 3 mps 730 mmHg 55%
    20:00 +8°C° 0 mm 3 mps 730 mmHg 56%
    21:00 +8°C° 0 mm 3 mps 730 mmHg 57%
    22:00 +8°C° 0 mm 3 mps 730 mmHg 58%
    23:00 +8°C° 0 mm 3 mps 730 mmHg 59%

    27 September, Thursday

    Time Temperature Precipitation Wind Pressure Humidity
    00:00 +8°C° 0 mm 3 mps 730 mmHg 59%
    01:00 +8°C° 0 mm 3 mps 729 mmHg 60%
    02:00 +7°C° 0 mm 3 mps 729 mmHg 60%
    03:00 +7°C° 0 mm 3 mps 729 mmHg 60%
    04:00 +7°C° 0 mm 3 mps 729 mmHg 61%
    05:00 +8°C° 0 mm 3 mps 729 mmHg 60%
    06:00 +8°C° 0 mm 3 mps 729 mmHg 60%
    07:00 +9°C° 0 mm 3 mps 729 mmHg 60%
    08:00 +11°C° 0 mm 3 mps 729 mmHg 56%
    09:00 +13°C° 0 mm 3 mps 729 mmHg 53%
    10:00 +15°C° 0 mm 4 mps 729 mmHg 49%
    11:00 +17°C° 0 mm 4 mps 729 mmHg 49%
    12:00 +18°C° 0 mm 4 mps 729 mmHg 49%
    13:00 +19°C° 0 mm 4 mps 728 mmHg 49%
    14:00 +19°C° 0 mm 4 mps 728 mmHg 50%
    15:00 +19°C° 0 mm 3 mps 727 mmHg 52%
    16:00 +19°C° 0 mm 3 mps 727 mmHg 53%
    17:00 +17°C° 0 mm 3 mps 726 mmHg 57%
    18:00 +16°C° 0 mm 3 mps 726 mmHg 61%
    19:00 +14°C° 0 mm 2 mps 725 mmHg 65%
    20:00 +13°C° 0 mm 2 mps 725 mmHg 64%
    21:00 +12°C° 0 mm 3 mps 725 mmHg 64%
    22:00 +12°C° 0 mm 3 mps 725 mmHg 63%
    23:00 +12°C° 0 mm 3 mps 725 mmHg 63%

    28 September, Friday

    Time Temperature Precipitation Wind Pressure Humidity
    00:00 +11°C° 0 mm 3 mps 724 mmHg 63%
    01:00 +11°C° 0 mm 3 mps 724 mmHg 64%
    02:00 +10°C° 0 mm 3 mps 724 mmHg 65%
    03:00 +10°C° 0 mm 2 mps 723 mmHg 66%
    04:00 +9°C° 0 mm 2 mps 723 mmHg 68%
    05:00 +9°C° 0 mm 2 mps 723 mmHg 68%
    06:00 +10°C° 0 mm 2 mps 723 mmHg 69%
    07:00 +10°C° 0 mm 2 mps 724 mmHg 70%
    08:00 +12°C° 0 mm 2 mps 724 mmHg 70%
    09:00 +13°C° 0 mm 2 mps 724 mmHg 70%
    10:00 +13°C° 0 mm 3 mps 725 mmHg 70%
    11:00 +13°C° 0 mm 3 mps 725 mmHg 73%
    12:00 +13°C° 0 mm 2 mps 725 mmHg 77%
    13:00 +13°C° 0 mm 2 mps 725 mmHg 81%
    14:00 +13°C° 0 mm 2 mps 725 mmHg 80%
    15:00 +12°C° 0 mm 2 mps 724 mmHg 80%
    16:00 +12°C° 0 mm 2 mps 724 mmHg 80%
    17:00 +12°C° 0 mm 2 mps 725 mmHg 81%
    18:00 +10°C° 0 mm 2 mps 725 mmHg 83%
    19:00 +10°C° 0 mm 2 mps 726 mmHg 84%
    20:00 +9°C° 0 mm 2 mps 726 mmHg 85%
    21:00 +9°C° 0 mm 2 mps 726 mmHg 85%
    22:00 +8°C° 0 mm 2 mps 726 mmHg 85%
    23:00 +8°C° 0 mm 2 mps 726 mmHg 85%
    Show more